TimeMDT,TemperatureF,Dew PointF,Humidity,Sea Level PressureIn,VisibilityMPH,Wind Direction,Wind SpeedMPH,Gust SpeedMPH,PrecipitationIn,Events,Conditions,WindDirDegrees,DateUTC
12:53 AM,55.0,43.0,64,29.97,10.0,WSW,5.8,-,N/A,,Scattered Clouds,250,2013-05-18 06:53:00
1:53 AM,53.1,42.1,66,29.98,10.0,WNW,4.6,-,N/A,,Clear,300,2013-05-18 07:53:00
2:53 AM,48.9,42.1,77,30.00,10.0,WSW,8.1,-,N/A,,Clear,240,2013-05-18 08:53:00
3:53 AM,48.9,41.0,74,30.01,10.0,WSW,5.8,-,N/A,,Clear,250,2013-05-18 09:53:00
4:53 AM,50.0,39.0,66,30.01,10.0,West,5.8,-,N/A,,Clear,260,2013-05-18 10:53:00
5:53 AM,46.9,39.0,74,30.03,10.0,WNW,3.5,-,N/A,,Clear,300,2013-05-18 11:53:00
6:53 AM,50.0,39.0,66,30.04,10.0,WNW,10.4,-,N/A,,Mostly Cloudy,290,2013-05-18 12:53:00
7:53 AM,52.0,39.0,61,30.06,10.0,Calm,Calm,-,N/A,,Clear,0,2013-05-18 13:53:00
8:53 AM,57.9,37.0,46,30.07,10.0,NNW,16.1,-,N/A,,Partly Cloudy,330,2013-05-18 14:53:00
9:53 AM,61.0,35.1,38,30.07,10.0,NW,11.5,-,N/A,,Clear,310,2013-05-18 15:53:00
10:53 AM,62.1,35.1,37,30.06,10.0,WSW,4.6,-,N/A,,Clear,240,2013-05-18 16:53:00
11:53 AM,64.9,35.1,33,30.05,10.0,SW,13.8,18.4,N/A,,Mostly Cloudy,230,2013-05-18 17:53:00
1:53 PM,66.0,33.1,29,30.04,10.0,West,3.5,-,N/A,,Scattered Clouds,260,2013-05-18 19:53:00
2:53 PM,68.0,32.0,26,30.03,10.0,Variable,4.6,-,N/A,,Overcast,0,2013-05-18 20:53:00
3:53 PM,68.0,30.9,25,30.01,10.0,Variable,6.9,-,N/A,,Scattered Clouds,0,2013-05-18 21:53:00
4:53 PM,70.0,30.0,23,30.00,10.0,Variable,3.5,-,N/A,,Mostly Cloudy,0,2013-05-18 22:53:00
5:53 PM,69.1,30.9,24,30.01,10.0,NNW,4.6,-,N/A,,Overcast,340,2013-05-18 23:53:00
6:53 PM,68.0,32.0,26,30.01,10.0,Calm,Calm,-,N/A,,Overcast,0,2013-05-19 00:53:00
7:53 PM,64.9,37.0,36,30.02,10.0,WNW,20.7,26.5,N/A,,Overcast,290,2013-05-19 01:53:00
8:53 PM,63.0,34.0,34,30.03,10.0,NW,18.4,26.5,N/A,,Scattered Clouds,320,2013-05-19 02:53:00
10:53 PM,59.0,36.0,42,30.07,10.0,NW,20.7,28.8,N/A,,Overcast,320,2013-05-19 04:53:00
11:53 PM,57.0,37.0,47,30.08,10.0,NW,18.4,27.6,N/A,,Overcast,320,2013-05-19 05:53:00